Location: Newark
(45.2500°N, 7.5833°E)
Time: 21:57:18
(UTC+00:00)

Tiros 1 despin weight - Pass Details

Date: 27 January 2020
Orbit: 594 x 642 km, 48.2° (Epoch: 20 February)

Event Time Altitude Azimuth Distance (km) Brightness Sun altitude
Rises 08:30:55 0° 188° (S) 2,831 ? 12.8°
Reaches altitude 10° 08:34:22 10° 160° (SSE) 1,944 ? 13.3°
Maximum altitude 08:36:20 13° 133° (SE) 1,777 ? 13.5°
Drops below altitude 10° 08:38:18 10° 107° (ESE) 1,962 ? 13.7°
Sets 08:41:49 0° 79° (E) 2,884 ? 14.2°
